EXS408K LGSK-EGSS

Flight info

Callsign EXS408K
Flight time 3h 6m
Altitude 36000
Route TSL UL617 MAKED DCT LONTA UL608 DOLEV DCT YUYUH DCT PODOB DCT KEB DCT NORPI DCT MARIL DCT OKSIG DCT KUSIB DCT EBITI DCT NIPEL DCT EVAXI DCT NANIT DCT ERKIR DCT BABEG DCT ADENU L608 LIRSU DCT ARCKY DCT BUB L608 SUMUM Y6 TOSVA
Aircraft B738/M-SDE2E3FGHIRWXY/LB1

Departure

Time 2026-05-01 09:30
Airport Skiathos Island National Airport (LGSK)

Arrival

Time 2026-05-01 12:36
Airport London Stansted Airport (EGSS)
Time Latitude Longitude Altitude Speed Heading
2026-05-01 09:19 39.17837 23.50209 36 ft 0 kts 289°
2026-05-01 09:25 39.17823 23.50258 37 ft 3 kts 287°
2026-05-01 09:25 39.17839 23.50308 35 ft 4 kts 198°
2026-05-01 09:26 39.17865 23.50317 37 ft 3 kts 198°
2026-05-01 09:26 39.17869 23.50318 37 ft 1 kts 199°
2026-05-01 09:27 39.17805 23.50290 36 ft 20 kts 199°
2026-05-01 09:27 39.17694 23.50251 38 ft 15 kts 197°
2026-05-01 09:28 39.17591 23.50225 38 ft 15 kts 159°
2026-05-01 09:28 39.17519 23.50278 39 ft 10 kts 186°
2026-05-01 09:28 39.17393 23.50227 35 ft 30 kts 198°
2026-05-01 09:28 39.17145 23.50116 21 ft 35 kts 199°
2026-05-01 09:29 39.17013 23.50083 10 ft 0 kts 216°
2026-05-01 09:29 39.17025 23.50052 10 ft 10 kts 346°
2026-05-01 09:30 39.17088 23.50091 17 ft 0 kts 19°
2026-05-01 09:30 39.17302 23.50190 28 ft 76 kts 19°
2026-05-01 09:30 39.19088 23.50995 905 ft 167 kts 21°
2026-05-01 09:31 39.20172 23.51432 2149 ft 166 kts 20°
2026-05-01 09:31 39.21350 23.51876 2756 ft 185 kts 20°
2026-05-01 09:31 39.24028 23.52904 3869 ft 218 kts 20°
2026-05-01 09:32 39.25557 23.53512 4467 ft 241 kts 20°
2026-05-01 09:32 39.28752 23.54882 6592 ft 242 kts 19°
2026-05-01 09:32 39.30376 23.55657 7311 ft 253 kts 18°
2026-05-01 09:33 39.32135 23.55918 8038 ft 259 kts 345°
2026-05-01 09:33 39.33834 23.55135 9022 ft 259 kts 335°
2026-05-01 09:33 39.37226 23.53321 10719 ft 275 kts 333°
2026-05-01 09:34 39.39088 23.52334 10985 ft 305 kts 334°
2026-05-01 09:34 39.41121 23.51282 11500 ft 320 kts 335°
2026-05-01 09:34 39.45362 23.49144 13087 ft 330 kts 335°
2026-05-01 09:35 39.47519 23.48074 13967 ft 334 kts 336°
2026-05-01 09:35 39.51905 23.45907 15477 ft 341 kts 335°
2026-05-01 09:35 39.54145 23.44802 16145 ft 347 kts 335°
2026-05-01 09:36 39.56386 23.43697 16857 ft 352 kts 336°
2026-05-01 09:36 39.58695 23.42558 17543 ft 357 kts 336°
2026-05-01 09:36 39.61024 23.41411 18344 ft 359 kts 335°
2026-05-01 09:36 39.63372 23.40253 19011 ft 363 kts 335°
2026-05-01 09:37 39.65739 23.39085 19668 ft 365 kts 335°
2026-05-01 09:37 39.70524 23.36721 21000 ft 370 kts 334°
2026-05-01 09:37 39.72939 23.35526 21651 ft 373 kts 334°
2026-05-01 09:38 39.77782 23.33127 22911 ft 378 kts 334°
2026-05-01 09:38 39.80262 23.31895 23444 ft 384 kts 334°
2026-05-01 09:38 39.82772 23.30648 23951 ft 388 kts 334°
2026-05-01 09:39 39.87835 23.28136 25063 ft 390 kts 334°
2026-05-01 09:39 39.89515 23.27301 25405 ft 391 kts 334°
2026-05-01 09:39 39.92932 23.25600 26041 ft 394 kts 333°
2026-05-01 09:40 39.94632 23.24753 26357 ft 396 kts 333°
2026-05-01 09:40 40.00595 23.21779 27446 ft 401 kts 333°
2026-05-01 09:40 40.03209 23.20472 27830 ft 405 kts 333°
2026-05-01 09:41 40.05852 23.19150 28218 ft 408 kts 333°
2026-05-01 09:41 40.10275 23.16938 29007 ft 410 kts 333°
2026-05-01 09:41 40.12948 23.15600 29440 ft 412 kts 333°
2026-05-01 09:42 40.15631 23.14254 29833 ft 414 kts 333°
2026-05-01 09:42 40.18329 23.12901 30218 ft 416 kts 333°
2026-05-01 09:42 40.24656 23.09720 30948 ft 422 kts 333°
2026-05-01 09:43 40.29288 23.07387 31311 ft 428 kts 333°
2026-05-01 09:43 40.32034 23.06005 31669 ft 428 kts 333°
2026-05-01 09:43 40.34808 23.04607 32093 ft 427 kts 333°
2026-05-01 09:44 40.40344 23.01812 32795 ft 427 kts 333°
2026-05-01 09:44 40.43123 23.00406 33150 ft 428 kts 333°
2026-05-01 09:44 40.45887 22.98983 33501 ft 426 kts 331°
2026-05-01 09:45 40.48544 22.97300 33856 ft 422 kts 327°
2026-05-01 09:45 40.53674 22.93666 34483 ft 422 kts 326°
2026-05-01 09:45 40.56248 22.91814 34762 ft 422 kts 326°
2026-05-01 09:46 40.58822 22.89973 35037 ft 422 kts 326°
2026-05-01 09:46 40.61407 22.88138 35312 ft 422 kts 326°
2026-05-01 09:46 40.63993 22.86312 35591 ft 422 kts 326°
2026-05-01 09:46 40.66582 22.84490 35861 ft 422 kts 326°
2026-05-01 09:47 40.69175 22.82668 36115 ft 422 kts 327°
2026-05-01 09:47 40.71771 22.80842 36245 ft 426 kts 327°
2026-05-01 09:47 40.77022 22.77142 36228 ft 431 kts 327°
2026-05-01 09:48 40.82264 22.73451 36213 ft 423 kts 327°
2026-05-01 09:48 40.87437 22.69797 36235 ft 422 kts 327°
2026-05-01 09:49 40.92614 22.66129 36234 ft 422 kts 327°
2026-05-01 09:49 40.97799 22.62452 36235 ft 424 kts 327°
2026-05-01 09:50 41.02963 22.58781 36235 ft 424 kts 327°
2026-05-01 09:50 41.08169 22.55075 36234 ft 425 kts 327°
2026-05-01 09:51 41.13339 22.51265 36230 ft 424 kts 322°
2026-05-01 09:51 41.17942 22.46454 36235 ft 421 kts 317°
2026-05-01 09:52 41.22462 22.41554 36242 ft 423 kts 318°
2026-05-01 09:52 41.27034 22.36624 36237 ft 424 kts 318°
2026-05-01 09:53 41.31623 22.31697 36240 ft 424 kts 318°
2026-05-01 09:53 41.36222 22.26759 36245 ft 425 kts 318°
2026-05-01 09:54 41.40800 22.21834 36236 ft 426 kts 318°
2026-05-01 09:54 41.45409 22.16868 36248 ft 426 kts 318°
2026-05-01 09:55 41.50019 22.11890 36240 ft 426 kts 318°
2026-05-01 09:55 41.54629 22.06904 36240 ft 426 kts 318°
2026-05-01 09:56 41.59232 22.01915 36236 ft 426 kts 318°
2026-05-01 09:56 41.63798 21.96956 36237 ft 426 kts 318°
2026-05-01 09:57 41.68395 21.91955 36235 ft 426 kts 318°
2026-05-01 09:57 41.72967 21.86971 36252 ft 426 kts 318°
2026-05-01 09:58 41.77558 21.81958 36248 ft 426 kts 318°
2026-05-01 09:58 41.82117 21.76969 36254 ft 426 kts 319°
2026-05-01 09:59 41.86701 21.71943 36269 ft 426 kts 319°
2026-05-01 09:59 41.91298 21.66894 36262 ft 427 kts 319°
2026-05-01 10:00 41.95894 21.61835 36274 ft 427 kts 319°
2026-05-01 10:00 42.00463 21.56797 36266 ft 428 kts 319°
2026-05-01 10:01 42.05063 21.51715 36253 ft 428 kts 319°
2026-05-01 10:01 42.09668 21.46617 36257 ft 429 kts 319°
2026-05-01 10:02 42.14273 21.41511 36254 ft 429 kts 319°
2026-05-01 10:02 42.18485 21.35866 36273 ft 426 kts 309°
2026-05-01 10:03 42.22297 21.29726 36270 ft 427 kts 309°
2026-05-01 10:03 42.26091 21.23603 36265 ft 428 kts 309°
2026-05-01 10:04 42.29932 21.17458 36271 ft 428 kts 309°
2026-05-01 10:04 42.33785 21.11313 36274 ft 429 kts 309°
2026-05-01 10:05 42.37643 21.05157 36282 ft 429 kts 309°
2026-05-01 10:05 42.41474 20.99030 36290 ft 429 kts 309°
2026-05-01 10:06 42.45327 20.92852 36287 ft 430 kts 309°
2026-05-01 10:06 42.49181 20.86661 36291 ft 430 kts 309°
2026-05-01 10:07 42.53038 20.80450 36282 ft 431 kts 310°
2026-05-01 10:07 42.56896 20.74225 36281 ft 431 kts 310°
2026-05-01 10:08 42.62657 20.64907 36280 ft 432 kts 309°
2026-05-01 10:09 42.66515 20.58650 36270 ft 432 kts 309°
2026-05-01 10:09 42.70373 20.52379 36269 ft 432 kts 309°
2026-05-01 10:10 42.74227 20.46100 36254 ft 433 kts 310°
2026-05-01 10:10 42.79982 20.36700 36265 ft 433 kts 310°
2026-05-01 10:11 42.83833 20.30395 36280 ft 433 kts 310°
2026-05-01 10:11 42.87688 20.24071 36272 ft 434 kts 310°
2026-05-01 10:12 42.91541 20.17735 36280 ft 434 kts 310°
2026-05-01 10:13 42.97286 20.08263 36274 ft 433 kts 310°
2026-05-01 10:13 43.01125 20.01914 36275 ft 433 kts 310°
2026-05-01 10:14 43.06874 19.92383 36272 ft 433 kts 310°
2026-05-01 10:14 43.10696 19.86030 36277 ft 432 kts 310°
2026-05-01 10:15 43.14488 19.79712 36274 ft 432 kts 310°
2026-05-01 10:15 43.18291 19.73361 36277 ft 431 kts 310°
2026-05-01 10:16 43.22087 19.67009 36276 ft 430 kts 310°
2026-05-01 10:17 43.27740 19.57526 36280 ft 429 kts 310°
2026-05-01 10:17 43.33392 19.48007 36287 ft 429 kts 310°
2026-05-01 10:18 43.39049 19.38450 36287 ft 431 kts 311°
2026-05-01 10:19 43.42833 19.32040 36290 ft 432 kts 311°
2026-05-01 10:19 43.46605 19.25634 36296 ft 435 kts 311°
2026-05-01 10:20 43.52334 19.15882 36286 ft 438 kts 311°
2026-05-01 10:20 43.56164 19.09344 36290 ft 438 kts 311°
2026-05-01 10:21 43.61906 18.99516 36294 ft 439 kts 311°
2026-05-01 10:22 43.67628 18.89689 36277 ft 440 kts 311°
2026-05-01 10:23 43.73374 18.79786 36303 ft 441 kts 311°
2026-05-01 10:23 43.79125 18.69837 36296 ft 442 kts 311°
2026-05-01 10:24 43.86767 18.56571 36295 ft 442 kts 311°
2026-05-01 10:25 43.94453 18.43248 36299 ft 442 kts 313°
2026-05-01 10:26 43.98519 18.36863 36299 ft 441 kts 315°
2026-05-01 10:27 44.06682 18.24205 36313 ft 441 kts 314°
2026-05-01 10:28 44.12774 18.14611 36319 ft 441 kts 314°
2026-05-01 10:28 44.18832 18.05036 36335 ft 441 kts 315°
2026-05-01 10:29 44.24903 17.95385 36345 ft 442 kts 314°
2026-05-01 10:30 44.32989 17.82417 36345 ft 444 kts 314°
2026-05-01 10:31 44.41050 17.69437 36358 ft 443 kts 315°
2026-05-01 10:32 44.47104 17.59651 36357 ft 443 kts 314°
2026-05-01 10:33 44.55122 17.46638 36363 ft 442 kts 315°
2026-05-01 10:34 44.61145 17.36825 36378 ft 443 kts 315°
2026-05-01 10:34 44.65168 17.30272 36376 ft 443 kts 315°
2026-05-01 10:35 44.71227 17.20519 36381 ft 443 kts 315°
2026-05-01 10:35 44.75271 17.13986 36387 ft 443 kts 315°
2026-05-01 10:36 44.81333 17.04153 36384 ft 444 kts 315°
2026-05-01 10:37 44.85368 16.97548 36372 ft 445 kts 314°
2026-05-01 10:37 44.91266 16.87510 36374 ft 445 kts 314°
2026-05-01 10:38 44.95215 16.80764 36380 ft 446 kts 315°
2026-05-01 10:38 44.99165 16.74023 36381 ft 446 kts 315°
2026-05-01 10:39 45.03125 16.67255 36357 ft 447 kts 315°
2026-05-01 10:39 45.07054 16.60523 36374 ft 447 kts 315°
2026-05-01 10:40 45.11006 16.53734 36377 ft 447 kts 315°
2026-05-01 10:40 45.14958 16.46934 36380 ft 447 kts 315°
2026-05-01 10:41 45.19028 16.40302 36379 ft 445 kts 317°
2026-05-01 10:42 45.25223 16.30574 36376 ft 445 kts 318°
2026-05-01 10:42 45.29353 16.24019 36379 ft 445 kts 317°
2026-05-01 10:43 45.33469 16.17433 36380 ft 445 kts 317°
2026-05-01 10:43 45.37574 16.10842 36383 ft 445 kts 317°
2026-05-01 10:44 45.41646 16.04285 36375 ft 444 kts 318°
2026-05-01 10:44 45.45734 15.97688 36369 ft 444 kts 318°
2026-05-01 10:45 45.49811 15.91096 36378 ft 443 kts 318°
2026-05-01 10:45 45.53887 15.84491 36385 ft 444 kts 318°
2026-05-01 10:46 45.57958 15.77878 36321 ft 444 kts 319°
2026-05-01 10:46 45.61990 15.71309 36375 ft 442 kts 319°
2026-05-01 10:47 45.66044 15.64693 36380 ft 443 kts 319°
2026-05-01 10:47 45.70099 15.58058 36385 ft 443 kts 319°
2026-05-01 10:48 45.74153 15.51408 36392 ft 444 kts 319°
2026-05-01 10:48 45.78210 15.44738 36400 ft 444 kts 319°
2026-05-01 10:49 45.82238 15.38099 36404 ft 445 kts 319°
2026-05-01 10:49 45.86300 15.31388 36395 ft 446 kts 318°
2026-05-01 10:50 45.90363 15.24657 36392 ft 446 kts 318°
2026-05-01 10:50 45.94425 15.17913 36391 ft 446 kts 318°
2026-05-01 10:51 45.98450 15.11211 36376 ft 445 kts 319°
2026-05-01 10:51 46.02483 15.04483 36379 ft 444 kts 319°
2026-05-01 10:52 46.06476 14.97716 36375 ft 446 kts 315°
2026-05-01 10:52 46.09982 14.90273 36373 ft 450 kts 310°
2026-05-01 10:53 46.13341 14.82671 36374 ft 448 kts 310°
2026-05-01 10:53 46.16715 14.75117 36378 ft 447 kts 310°
2026-05-01 10:54 46.20086 14.67657 36378 ft 446 kts 311°
2026-05-01 10:54 46.23483 14.60152 36384 ft 447 kts 311°
2026-05-01 10:55 46.26875 14.52638 36336 ft 447 kts 310°
2026-05-01 10:55 46.30256 14.45122 36380 ft 445 kts 310°
2026-05-01 10:56 46.33604 14.37657 36374 ft 445 kts 310°
2026-05-01 10:56 46.36961 14.30152 36382 ft 445 kts 310°
2026-05-01 10:57 46.40325 14.22618 36371 ft 447 kts 310°
2026-05-01 10:57 46.43685 14.15063 36362 ft 444 kts 310°
2026-05-01 10:58 46.46991 14.07614 36408 ft 442 kts 309°
2026-05-01 10:58 46.50453 14.00266 36392 ft 439 kts 315°
2026-05-01 10:59 46.54351 13.93431 36378 ft 440 kts 317°
2026-05-01 10:59 46.58303 13.86610 36381 ft 442 kts 316°
2026-05-01 11:00 46.62215 13.79716 36369 ft 442 kts 316°
2026-05-01 11:00 46.66080 13.72825 36368 ft 443 kts 315°
2026-05-01 11:01 46.69975 13.65860 36364 ft 444 kts 315°
2026-05-01 11:01 46.73867 13.58886 36360 ft 443 kts 315°
2026-05-01 11:02 46.77750 13.51914 36318 ft 442 kts 315°
2026-05-01 11:02 46.81525 13.44935 36334 ft 441 kts 314°
2026-05-01 11:03 46.85274 13.37873 36340 ft 439 kts 314°
2026-05-01 11:03 46.88986 13.30868 36337 ft 432 kts 314°
2026-05-01 11:04 46.92669 13.23928 36357 ft 435 kts 314°
2026-05-01 11:04 46.96393 13.16914 36343 ft 444 kts 314°
2026-05-01 11:05 47.00199 13.09717 36335 ft 446 kts 313°
2026-05-01 11:05 47.03940 13.02601 36330 ft 437 kts 313°
2026-05-01 11:06 47.07664 12.95520 36336 ft 439 kts 313°
2026-05-01 11:06 47.11365 12.88467 36328 ft 440 kts 313°
2026-05-01 11:07 47.16944 12.77794 36339 ft 439 kts 313°
2026-05-01 11:07 47.20663 12.70657 36339 ft 440 kts 313°
2026-05-01 11:08 47.24385 12.63494 36332 ft 441 kts 313°
2026-05-01 11:09 47.29936 12.52777 36333 ft 441 kts 313°
2026-05-01 11:09 47.33650 12.45581 36349 ft 440 kts 312°
2026-05-01 11:10 47.39206 12.34777 36334 ft 441 kts 311°
2026-05-01 11:10 47.42585 12.27261 36342 ft 443 kts 307°
2026-05-01 11:11 47.45840 12.19521 36334 ft 443 kts 307°
2026-05-01 11:11 47.49116 12.11826 36341 ft 442 kts 307°
2026-05-01 11:12 47.52414 12.04143 36347 ft 442 kts 307°
2026-05-01 11:12 47.55830 11.96604 36348 ft 439 kts 311°
2026-05-01 11:13 47.59468 11.89435 36340 ft 438 kts 312°
2026-05-01 11:13 47.63156 11.82237 36343 ft 439 kts 311°
2026-05-01 11:14 47.66828 11.74975 36350 ft 444 kts 311°
2026-05-01 11:14 47.70571 11.67506 36361 ft 458 kts 311°
2026-05-01 11:15 47.74398 11.59823 36358 ft 465 kts 310°
2026-05-01 11:15 47.78209 11.52138 36341 ft 463 kts 310°
2026-05-01 11:16 47.81999 11.44473 36320 ft 458 kts 310°
2026-05-01 11:16 47.85762 11.36852 36341 ft 456 kts 310°
2026-05-01 11:17 47.89518 11.29228 36346 ft 456 kts 310°
2026-05-01 11:17 47.93241 11.21650 36345 ft 457 kts 310°
2026-05-01 11:18 47.96990 11.13998 36340 ft 457 kts 310°
2026-05-01 11:18 48.00738 11.06323 36334 ft 458 kts 309°
2026-05-01 11:19 48.04487 10.98624 36347 ft 458 kts 309°
2026-05-01 11:19 48.08204 10.90970 36341 ft 458 kts 309°
2026-05-01 11:20 48.11945 10.83245 36346 ft 459 kts 309°
2026-05-01 11:20 48.15681 10.75508 36340 ft 459 kts 309°
2026-05-01 11:21 48.19414 10.67756 36348 ft 458 kts 309°
2026-05-01 11:21 48.23136 10.60003 36342 ft 458 kts 309°
2026-05-01 11:22 48.26831 10.52286 36344 ft 459 kts 308°
2026-05-01 11:22 48.30549 10.44499 36341 ft 459 kts 308°
2026-05-01 11:23 48.34261 10.36700 36341 ft 459 kts 308°
2026-05-01 11:23 48.37964 10.28900 36348 ft 458 kts 308°
2026-05-01 11:24 48.41640 10.21133 36351 ft 459 kts 308°
2026-05-01 11:25 48.47181 10.09384 36355 ft 459 kts 308°
2026-05-01 11:25 48.52713 9.97603 36326 ft 459 kts 307°
2026-05-01 11:26 48.58234 9.85793 36334 ft 459 kts 307°
2026-05-01 11:27 48.61880 9.77966 36330 ft 459 kts 307°
2026-05-01 11:27 48.65547 9.70073 36327 ft 459 kts 307°
2026-05-01 11:28 48.69289 9.62245 36319 ft 458 kts 309°
2026-05-01 11:28 48.73215 9.54665 36317 ft 457 kts 310°
2026-05-01 11:29 48.79105 9.43353 36314 ft 458 kts 309°
2026-05-01 11:30 48.84974 9.31908 36316 ft 458 kts 309°
2026-05-01 11:30 48.88873 9.24253 36320 ft 458 kts 309°
2026-05-01 11:31 48.92766 9.16587 36315 ft 458 kts 309°
2026-05-01 11:31 48.96631 9.08957 36318 ft 458 kts 309°
2026-05-01 11:32 49.00519 9.01262 36322 ft 459 kts 308°
2026-05-01 11:32 49.04401 8.93555 36321 ft 459 kts 308°
2026-05-01 11:33 49.08280 8.85832 36316 ft 459 kts 308°
2026-05-01 11:33 49.12132 8.78142 36318 ft 459 kts 308°
2026-05-01 11:34 49.16007 8.70382 36318 ft 460 kts 308°
2026-05-01 11:34 49.19880 8.62603 36316 ft 460 kts 308°
2026-05-01 11:35 49.23754 8.54800 36329 ft 460 kts 308°
2026-05-01 11:35 49.27622 8.46987 36334 ft 460 kts 308°
2026-05-01 11:36 49.31459 8.39214 36327 ft 460 kts 308°
2026-05-01 11:36 49.35316 8.31376 36323 ft 460 kts 308°
2026-05-01 11:37 49.39167 8.23527 36317 ft 460 kts 308°
2026-05-01 11:37 49.43012 8.15667 36326 ft 460 kts 308°
2026-05-01 11:38 49.46825 8.07852 36317 ft 460 kts 308°
2026-05-01 11:38 49.50656 7.99976 36309 ft 460 kts 307°
2026-05-01 11:39 49.54484 7.92082 36314 ft 460 kts 307°
2026-05-01 11:39 49.58305 7.84181 36311 ft 460 kts 307°
2026-05-01 11:40 49.62124 7.76257 36318 ft 460 kts 307°
2026-05-01 11:40 49.65907 7.68387 36315 ft 460 kts 307°
2026-05-01 11:41 49.69713 7.60441 36311 ft 460 kts 306°
2026-05-01 11:41 49.73514 7.52488 36322 ft 460 kts 306°
2026-05-01 11:42 49.77303 7.44534 36324 ft 460 kts 306°
2026-05-01 11:42 49.81062 7.36618 36317 ft 459 kts 306°
2026-05-01 11:43 49.84842 7.28635 36325 ft 460 kts 306°
2026-05-01 11:43 49.88618 7.20636 36322 ft 460 kts 306°
2026-05-01 11:44 49.94270 7.08617 36344 ft 460 kts 306°
2026-05-01 11:44 49.98009 7.00635 36338 ft 460 kts 306°
2026-05-01 11:45 50.01760 6.92607 36303 ft 459 kts 306°
2026-05-01 11:45 50.05137 6.84183 36303 ft 459 kts 298°
2026-05-01 11:46 50.08147 6.75413 36305 ft 460 kts 297°
2026-05-01 11:46 50.11183 6.66648 36300 ft 460 kts 298°
2026-05-01 11:47 50.14246 6.57957 36297 ft 461 kts 298°
2026-05-01 11:47 50.17333 6.49201 36281 ft 461 kts 298°
2026-05-01 11:48 50.20410 6.40431 36276 ft 461 kts 298°
2026-05-01 11:48 50.23489 6.31628 36284 ft 462 kts 297°
2026-05-01 11:49 50.26565 6.22806 36285 ft 462 kts 298°
2026-05-01 11:49 50.29616 6.14033 36281 ft 462 kts 298°
2026-05-01 11:50 50.32830 6.05312 36283 ft 463 kts 300°
2026-05-01 11:50 50.36220 5.96752 36276 ft 463 kts 300°
2026-05-01 11:51 50.39608 5.88149 36282 ft 464 kts 300°
2026-05-01 11:51 50.42966 5.79499 36281 ft 465 kts 300°
2026-05-01 11:52 50.46312 5.70815 36272 ft 465 kts 299°
2026-05-01 11:52 50.49620 5.62165 36274 ft 465 kts 300°
2026-05-01 11:53 50.52919 5.53437 36271 ft 465 kts 300°
2026-05-01 11:53 50.56250 5.44703 36276 ft 465 kts 300°
2026-05-01 11:54 50.59576 5.35982 36269 ft 465 kts 300°
2026-05-01 11:54 50.62867 5.27287 36267 ft 465 kts 300°
2026-05-01 11:55 50.66171 5.18517 36268 ft 465 kts 298°
2026-05-01 11:55 50.69464 5.09724 36271 ft 466 kts 299°
2026-05-01 11:56 50.72769 5.00918 36275 ft 467 kts 299°
2026-05-01 11:56 50.76064 4.92060 36272 ft 468 kts 299°
2026-05-01 11:57 50.78804 4.84692 36280 ft 468 kts 299°
2026-05-01 11:57 50.82625 4.74379 36270 ft 468 kts 298°
2026-05-01 11:58 50.85911 4.65494 36270 ft 468 kts 298°
2026-05-01 11:59 50.90796 4.52195 36267 ft 468 kts 299°
2026-05-01 11:59 50.94171 4.43376 36266 ft 468 kts 300°
2026-05-01 12:00 50.98731 4.31593 36265 ft 468 kts 300°
2026-05-01 12:01 51.03777 4.18403 36268 ft 468 kts 300°
2026-05-01 12:01 51.07690 4.08103 36259 ft 468 kts 300°
2026-05-01 12:02 51.11047 3.99234 36253 ft 468 kts 300°
2026-05-01 12:02 51.13832 3.91854 36242 ft 468 kts 300°
2026-05-01 12:03 51.17181 3.82952 36236 ft 468 kts 299°
2026-05-01 12:03 51.20522 3.74040 36234 ft 469 kts 299°
2026-05-01 12:04 51.23870 3.65083 36234 ft 470 kts 299°
2026-05-01 12:04 51.27143 3.56271 36207 ft 448 kts 299°
2026-05-01 12:05 51.30251 3.47860 36229 ft 436 kts 298°
2026-05-01 12:05 51.33286 3.39626 36207 ft 417 kts 298°
2026-05-01 12:05 51.34700 3.35731 36212 ft 404 kts 296°
2026-05-01 12:06 51.35824 3.31719 36230 ft 389 kts 288°
2026-05-01 12:06 51.36751 3.27724 36212 ft 376 kts 287°
2026-05-01 12:06 51.37626 3.23847 36209 ft 364 kts 287°
2026-05-01 12:06 51.38485 3.20103 36206 ft 354 kts 287°
2026-05-01 12:07 51.40239 3.12638 36251 ft 366 kts 288°
2026-05-01 12:07 51.42090 3.04783 35645 ft 388 kts 288°
2026-05-01 12:08 51.43048 3.00697 34676 ft 396 kts 288°
2026-05-01 12:08 51.44031 2.96494 33440 ft 409 kts 288°
2026-05-01 12:08 51.45039 2.92184 32384 ft 415 kts 288°
2026-05-01 12:08 51.46037 2.87913 31648 ft 413 kts 288°
2026-05-01 12:09 51.47039 2.83622 31039 ft 408 kts 287°
2026-05-01 12:09 51.48028 2.79379 30432 ft 404 kts 287°
2026-05-01 12:09 51.49003 2.75175 29718 ft 400 kts 287°
2026-05-01 12:09 51.49968 2.71008 28996 ft 396 kts 287°
2026-05-01 12:10 51.50925 2.66866 28407 ft 395 kts 287°
2026-05-01 12:10 51.53068 2.58820 27454 ft 390 kts 299°
2026-05-01 12:10 51.54705 2.55349 26772 ft 390 kts 307°
2026-05-01 12:11 51.58236 2.48793 25580 ft 385 kts 308°
2026-05-01 12:11 51.59971 2.45582 25153 ft 385 kts 308°
2026-05-01 12:11 51.61711 2.42335 24765 ft 383 kts 308°
2026-05-01 12:12 51.63446 2.39071 23921 ft 387 kts 307°
2026-05-01 12:12 51.65209 2.35731 22869 ft 393 kts 307°
2026-05-01 12:12 51.66983 2.32355 21991 ft 398 kts 307°
2026-05-01 12:12 51.68793 2.28903 21243 ft 410 kts 307°
2026-05-01 12:13 51.70660 2.25333 20516 ft 422 kts 307°
2026-05-01 12:13 51.72562 2.21696 19777 ft 425 kts 307°
2026-05-01 12:13 51.74467 2.18050 19064 ft 426 kts 307°
2026-05-01 12:13 51.76364 2.14418 18629 ft 418 kts 307°
2026-05-01 12:14 51.78223 2.10853 18500 ft 416 kts 307°
2026-05-01 12:14 51.80081 2.07280 18360 ft 414 kts 307°
2026-05-01 12:14 51.81920 2.03740 18249 ft 410 kts 307°
2026-05-01 12:14 51.83746 2.00216 18238 ft 409 kts 307°
2026-05-01 12:15 51.85550 1.96731 18224 ft 410 kts 307°
2026-05-01 12:15 51.87380 1.93193 18236 ft 411 kts 307°
2026-05-01 12:15 51.89215 1.89637 18226 ft 412 kts 306°
2026-05-01 12:15 51.90866 1.85888 18228 ft 408 kts 296°
2026-05-01 12:16 51.92215 1.81899 17915 ft 401 kts 294°
2026-05-01 12:16 51.93483 1.77882 17325 ft 398 kts 293°
2026-05-01 12:16 51.94724 1.73908 16810 ft 392 kts 293°
2026-05-01 12:16 51.95960 1.69997 16305 ft 388 kts 294°
2026-05-01 12:17 51.97156 1.66106 15806 ft 382 kts 288°
2026-05-01 12:17 51.97857 1.62017 15293 ft 373 kts 276°
2026-05-01 12:17 51.98095 1.57940 14825 ft 366 kts 269°
2026-05-01 12:17 51.98240 1.53837 14347 ft 363 kts 269°
2026-05-01 12:18 51.98386 1.49770 13888 ft 359 kts 269°
2026-05-01 12:18 51.98534 1.45760 13496 ft 353 kts 269°
2026-05-01 12:18 51.98683 1.41822 13105 ft 347 kts 270°
2026-05-01 12:18 51.98831 1.37939 12713 ft 342 kts 270°
2026-05-01 12:19 51.98978 1.34109 12330 ft 338 kts 270°
2026-05-01 12:19 51.99122 1.30325 11944 ft 335 kts 270°
2026-05-01 12:19 51.99264 1.26576 11578 ft 331 kts 270°
2026-05-01 12:19 51.99405 1.22861 11267 ft 328 kts 270°
2026-05-01 12:20 51.99543 1.19156 11227 ft 330 kts 270°
2026-05-01 12:20 51.99681 1.15429 11205 ft 332 kts 270°
2026-05-01 12:20 51.99819 1.11675 10957 ft 334 kts 270°
2026-05-01 12:20 51.99956 1.07929 10720 ft 331 kts 270°
2026-05-01 12:21 52.00092 1.04220 10479 ft 328 kts 270°
2026-05-01 12:21 52.00225 1.00571 10231 ft 320 kts 270°
2026-05-01 12:21 52.00352 0.97105 9977 ft 304 kts 270°
2026-05-01 12:21 52.00429 0.93761 9687 ft 288 kts 262°
2026-05-01 12:22 51.99988 0.90696 9432 ft 275 kts 248°
2026-05-01 12:22 51.99351 0.87775 9240 ft 275 kts 246°
2026-05-01 12:22 51.98692 0.84889 9198 ft 272 kts 246°
2026-05-01 12:22 51.98028 0.82004 9208 ft 275 kts 246°
2026-05-01 12:23 51.97351 0.79084 9201 ft 278 kts 246°
2026-05-01 12:23 51.96668 0.76145 9188 ft 278 kts 246°
2026-05-01 12:23 51.95986 0.73211 9192 ft 278 kts 246°
2026-05-01 12:23 51.95299 0.70271 9185 ft 278 kts 246°
2026-05-01 12:24 51.94625 0.67382 9183 ft 277 kts 246°
2026-05-01 12:24 51.93936 0.64433 8925 ft 283 kts 246°
2026-05-01 12:24 51.93231 0.61427 8532 ft 286 kts 246°
2026-05-01 12:24 51.92525 0.58426 8156 ft 284 kts 246°
2026-05-01 12:25 51.91825 0.55462 7652 ft 280 kts 246°
2026-05-01 12:25 51.90443 0.49672 6687 ft 272 kts 246°
2026-05-01 12:25 51.89763 0.46840 6193 ft 268 kts 246°
2026-05-01 12:26 51.89093 0.44030 5690 ft 266 kts 246°
2026-05-01 12:26 51.87780 0.38543 5080 ft 259 kts 246°
2026-05-01 12:26 51.87086 0.35839 5015 ft 260 kts 238°
2026-05-01 12:27 51.86007 0.33512 4701 ft 260 kts 227°
2026-05-01 12:27 51.83666 0.29272 3857 ft 250 kts 226°
2026-05-01 12:28 51.81388 0.25222 2866 ft 237 kts 226°
2026-05-01 12:28 51.80327 0.23297 2636 ft 221 kts 225°
2026-05-01 12:28 51.78511 0.19827 2517 ft 183 kts 223°
2026-05-01 12:29 51.77641 0.18305 2508 ft 186 kts 227°
2026-05-01 12:29 51.76793 0.16735 2502 ft 186 kts 226°
2026-05-01 12:29 51.75110 0.13663 2489 ft 176 kts 225°
2026-05-01 12:30 51.73438 0.10695 2495 ft 184 kts 213°
2026-05-01 12:30 51.72379 0.09580 2521 ft 183 kts 211°
2026-05-01 12:30 51.71344 0.08450 2499 ft 177 kts 211°
2026-05-01 12:31 51.70342 0.07303 2474 ft 179 kts 219°
2026-05-01 12:31 51.69745 0.05542 2480 ft 184 kts 260°
2026-05-01 12:31 51.69996 0.03488 2454 ft 194 kts 299°
2026-05-01 12:31 51.71026 0.02105 2463 ft 201 kts 338°
2026-05-01 12:32 51.72389 0.01866 2524 ft 197 kts
2026-05-01 12:32 51.75034 0.02903 2478 ft 198 kts 50°
2026-05-01 12:32 51.75916 0.04539 2509 ft 193 kts 46°
2026-05-01 12:33 51.76914 0.06024 2484 ft 195 kts 46°
2026-05-01 12:33 51.77902 0.07515 2476 ft 194 kts 46°
2026-05-01 12:33 51.78870 0.08968 2498 ft 192 kts 46°
2026-05-01 12:33 51.79850 0.10449 2423 ft 196 kts 46°
2026-05-01 12:34 51.80854 0.11967 2206 ft 196 kts 47°
2026-05-01 12:34 51.81839 0.13392 1981 ft 181 kts 45°
2026-05-01 12:34 51.82719 0.14754 1694 ft 169 kts 47°
2026-05-01 12:34 51.83539 0.16010 1476 ft 156 kts 49°
2026-05-01 12:35 51.84330 0.17206 1266 ft 155 kts 49°
2026-05-01 12:35 51.85099 0.18363 1068 ft 149 kts 45°
2026-05-01 12:35 51.85849 0.19482 854 ft 146 kts 49°
2026-05-01 12:35 51.86605 0.20617 691 ft 150 kts 50°
2026-05-01 12:36 51.87356 0.21761 494 ft 147 kts 47°
2026-05-01 12:36 51.88107 0.22885 351 ft 142 kts 48°
2026-05-01 12:36 51.88588 0.23624 340 ft 101 kts 44°
2026-05-01 12:36 51.88696 0.23775 336 ft 12 kts 41°
2026-05-01 12:37 51.88817 0.23977 333 ft 37 kts 57°
2026-05-01 12:37 51.88892 0.24292 350 ft 22 kts 76°
2026-05-01 12:37 51.88910 0.24393 348 ft 5 kts 73°
2026-05-01 12:37 51.88919 0.24445 351 ft 5 kts 77°
2026-05-01 12:38 51.88904 0.24516 352 ft 13 kts 130°
2026-05-01 12:38 51.88822 0.24666 348 ft 19 kts 120°
2026-05-01 12:38 51.88831 0.24761 352 ft 6 kts 43°
2026-05-01 12:38 51.88859 0.24804 349 ft 5 kts 44°
2026-05-01 12:39 51.88894 0.24857 353 ft 13 kts 43°
2026-05-01 12:39 51.88961 0.24982 354 ft 12 kts 79°
2026-05-01 12:39 51.88921 0.25105 350 ft 13 kts 133°
2026-05-01 12:39 51.88862 0.25207 348 ft 12 kts 133°
2026-05-01 12:40 51.88829 0.25281 352 ft 2 kts 101°
2026-05-01 12:40 51.88849 0.25321 354 ft 12 kts 43°
2026-05-01 12:40 51.88860 0.25339 353 ft 0 kts 44°